#timestamp,LO_Frequency,Hit,StdDev 
1633136415.7,286046999.8,N
1633136435.5,286047002.5,N
1633136455.4,286047000.6,N
1633136475.2,286047000.8,N
1633136495.0,286046998.7,N
1633136496.0,286046998.7,N
1633136515.8,286046999.9,N
1633136565.7,286047000.0,E
1633136575.6,286047000.5,N
1633136595.4,286047000.2,P
1633136615.2,286046999.5,P
1633136635.1,286046998.7,Y
1633136636.0,286046998.7,P
1633136655.8,286046996.7,P
1633136675.7,286046996.6,N
1633136695.5,286046996.9,N
1633136715.3,286046999.3,N
1633136735.2,286046996.8,N
1633136755.0,286047001.0,N
1633136755.9,286047001.0,N
1633136775.8,286047002.7,N
1633136795.6,286047003.8,N
1633136815.4,286047005.0,N
1633136835.3,286047006.0,N
1633136855.1,286047004.6,N
1633136875.8,286047004.4,N
1633136895.7,286047003.7,N
1633136915.5,286047003.1,N
1633136935.4,286047003.6,N
1633136955.2,286047002.0,N
1633136975.0,286047003.5,N
1633136975.9,286047003.5,N
1633136995.8,286047004.6,N
1633137015.6,286047005.5,N
1633137035.4,286047003.3,N
1633137055.3,286047004.7,N
1633137075.1,286047007.5,N
1633137095.9,286047004.6,N
1633137115.7,286047005.7,N
1633137135.5,286047007.2,N
1633137155.4,286047004.9,N
1633137175.2,286047005.9,N
1633137195.0,286047004.2,N
1633137195.9,286047004.2,N
1633137215.8,286047003.7,N
1633137235.6,286047007.2,N
1633137255.5,286047006.6,N
1633137275.3,286047006.1,N
1633137295.1,286047008.6,Y
1633137315.9,286047005.3,P
1633137335.7,286047007.5,P
1633137355.6,286047006.2,P
1633137375.4,286047006.3,Y
1633137395.2,286047000.8,P
1633137415.1,286046999.1,N
1633137416.0,286046999.1,N
1633137435.8,286047000.7,N
1633137455.7,286046999.1,N
1633137475.5,286046998.2,N
1633137495.3,286046998.9,N
1633137515.2,286046998.2,N
1633137535.0,286046999.3,N
1633137535.9,286046999.3,N
1633137555.7,286046997.1,N
1633137575.6,286046995.2,N
1633137595.4,286046997.2,N
1633137615.3,286046999.2,N
1633137635.1,286046996.7,N
1633137636.0,286046996.7,N
1633137655.8,286046999.0,N
1633137675.7,286047002.0,N
1633137695.5,286047003.5,N
1633137715.4,286047003.8,N
1633137735.2,286047005.6,N
1633137755.0,286047005.0,N
1633137755.9,286047005.0,N
1633137775.8,286047004.5,N
1633137795.6,286047007.2,N
1633137815.5,286047003.2,N
1633137835.3,286047003.1,N
1633137855.1,286047001.4,N
1633137875.9,286047003.9,N
1633137895.7,286047002.2,N
1633137915.5,286047004.1,N
1633137935.4,286047003.6,N
1633137955.2,286047007.5,N
1633137975.1,286047006.9,N
1633137976.0,286047006.9,N
1633137995.8,286047005.5,N
1633138015.6,286047004.9,N
1633138035.5,286047004.9,N
1633138055.3,286047007.5,N
1633138075.1,286047007.5,N
1633138095.9,286047007.1,N
1633138115.7,286047007.5,N
1633138135.6,286047007.5,N
1633138155.4,286047005.2,N
1633138175.2,286047005.7,N
1633138195.1,286047007.3,N
1633138196.0,286047007.3,Y
1633138215.8,286047002.0,P
1633138235.6,286047001.3,N
1633138255.5,286047000.2,N
1633138275.3,286047002.7,N
1633138295.2,286047001.8,N
1633138315.9,286047004.0,N
1633138335.7,286047002.7,N
1633138355.6,286047004.1,N
1633138375.4,286047001.4,N
1633138395.3,286047000.4,N
1633138415.1,286047001.9,N
1633138416.0,286047001.9,N
1633138435.8,286047004.4,Y
1633138455.7,286047001.6,P
1633138475.5,286047001.6,P
1633138495.3,286047000.0,N
1633138515.2,286047000.8,N
1633138535.0,286046998.1,N
1633138535.9,286046998.1,N
1633138555.8,286046998.9,N
1633138575.6,286046998.9,N
1633138595.4,286046998.0,N
1633138615.3,286046991.8,Y
1633138635.1,286046992.5,P
1633138655.9,286046996.0,N
1633138675.7,286046998.0,N
1633138695.5,286046996.8,N
1633138715.4,286046996.8,N
1633138735.2,286046999.4,N
1633138755.0,286046998.2,N
1633138755.9,286046998.2,N
1633138775.8,286046998.1,N
1633138795.6,286046998.1,N
1633138815.5,286047000.7,N
1633138835.3,286047000.3,N
1633138855.1,286046998.4,N
1633138875.9,286046997.2,N
1633138895.7,286046999.6,N
1633138915.5,286046998.1,N
1633138935.4,286047002.6,N
1633138955.2,286047001.8,N
1633138975.1,286047001.9,N
1633138976.0,286047001.9,N
1633138995.8,286047002.2,N
1633139015.6,286047000.6,N
1633139035.5,286047002.7,N
1633139055.3,286047004.3,N
1633139075.1,286047000.3,N
1633139095.9,286047000.6,N
1633139115.7,286046999.7,N
1633139135.6,286047003.5,N
1633139155.4,286047003.7,N
1633139175.2,286047003.5,N
1633139195.1,286047001.7,N
1633139196.0,286047001.7,N
1633139215.8,286047002.7,N
1633139235.6,286047001.7,N
1633139255.5,286047001.8,N
1633139275.3,286047003.5,N
1633139295.2,286047005.2,N
1633139315.0,286047007.5,Y
1633139315.9,286047007.5,P
1633139335.7,286047005.3,N
1633139355.6,286047005.5,N
1633139375.4,286047005.9,N
1633139395.3,286047005.8,N
1633139415.1,286047003.1,N
1633139435.8,286047001.6,N
1633139455.7,286047002.6,N
1633139475.5,286047004.0,N
1633139495.4,286047004.2,N
1633139515.2,286047004.4,N
1633139535.0,286047003.4,N
1633139535.9,286047003.4,N
1633139555.8,286047003.3,N
1633139575.6,286047005.6,Y
1633139595.4,286046999.7,P
1633139615.3,286047000.7,N
1633139635.1,286047001.2,N
1633139655.9,286047002.8,N
1633139675.7,286047001.4,N
1633139695.5,286047002.8,N
1633139715.4,286047001.5,N
1633139735.2,286047003.2,N
1633139755.1,286047006.0,Y
1633139756.0,286047006.0,P
1633139775.8,286047002.7,N
1633139795.6,286046998.5,N
1633139815.5,286046998.8,N
1633139835.3,286046999.2,N
1633139855.1,286046996.7,N
1633139875.9,286046998.8,N
1633139895.7,286046998.7,N
1633139915.6,286046998.7,N
1633139935.4,286047000.1,N
1633139955.2,286046999.9,N
1633139975.1,286047000.0,N
1633139976.0,286047000.0,N
1633139995.8,286046999.4,N
